AAL14 PHOG-KLAX

Flight info

Callsign AAL14
Flight time 4h 53m
Altitude 35000
Route CLUTS R465 CIVIT R585 GITLE ADUMM GALIP AUDIA SNAXX RYDRR2
Aircraft A21N/M-SDE2E3FGHIRWXY/LB1

Departure

Time 2026-04-25 08:37
Airport Kahului International Airport (PHOG)

Arrival

Time 2026-04-25 13:30
Airport Los Angeles International Airport (KLAX)
Time Latitude Longitude Altitude Speed Heading
2026-04-25 07:42 20.89531 -156.43496 36 ft 0 kts 304°
2026-04-25 08:25 20.89522 -156.43481 37 ft 4 kts 299°
2026-04-25 08:25 20.89511 -156.43455 37 ft 4 kts 288°
2026-04-25 08:25 20.89505 -156.43427 36 ft 4 kts 277°
2026-04-25 08:25 20.89503 -156.43399 36 ft 4 kts 264°
2026-04-25 08:26 20.89509 -156.43371 36 ft 4 kts 250°
2026-04-25 08:26 20.89521 -156.43346 36 ft 4 kts 230°
2026-04-25 08:26 20.89533 -156.43333 36 ft 0 kts 214°
2026-04-25 08:31 20.89528 -156.43337 36 ft 2 kts 214°
2026-04-25 08:32 20.89508 -156.43351 36 ft 5 kts 214°
2026-04-25 08:32 20.89478 -156.43373 37 ft 6 kts 214°
2026-04-25 08:32 20.89439 -156.43401 37 ft 7 kts 214°
2026-04-25 08:32 20.89393 -156.43436 37 ft 9 kts 215°
2026-04-25 08:33 20.89339 -156.43476 37 ft 10 kts 215°
2026-04-25 08:33 20.89278 -156.43522 37 ft 12 kts 214°
2026-04-25 08:33 20.89208 -156.43574 37 ft 13 kts 215°
2026-04-25 08:33 20.89139 -156.43626 37 ft 9 kts 215°
2026-04-25 08:34 20.89086 -156.43666 37 ft 10 kts 214°
2026-04-25 08:34 20.89030 -156.43706 37 ft 6 kts 202°
2026-04-25 08:34 20.88985 -156.43695 37 ft 8 kts 139°
2026-04-25 08:34 20.88951 -156.43655 37 ft 6 kts 132°
2026-04-25 08:35 20.88940 -156.43629 37 ft 4 kts 83°
2026-04-25 08:35 20.88956 -156.43601 37 ft 3 kts 42°
2026-04-25 08:35 20.88961 -156.43597 37 ft 0 kts 35°
2026-04-25 08:36 20.89036 -156.43540 38 ft 49 kts 35°
2026-04-25 08:36 20.89555 -156.43156 38 ft 127 kts 34°
2026-04-25 08:36 20.90427 -156.42517 259 ft 167 kts 35°
2026-04-25 08:37 20.91399 -156.41792 1092 ft 175 kts 33°
2026-04-25 08:37 20.92385 -156.41057 2044 ft 170 kts 35°
2026-04-25 08:37 20.93330 -156.40357 2894 ft 166 kts 36°
2026-04-25 08:37 20.94276 -156.39650 3677 ft 166 kts 37°
2026-04-25 08:38 20.95226 -156.38934 4420 ft 170 kts 37°
2026-04-25 08:38 20.96219 -156.38175 5042 ft 181 kts 37°
2026-04-25 08:38 20.97274 -156.37357 5659 ft 193 kts 38°
2026-04-25 08:38 20.98405 -156.36464 6188 ft 212 kts 38°
2026-04-25 08:39 20.99658 -156.35445 6495 ft 239 kts 38°
2026-04-25 08:39 21.01039 -156.34312 6884 ft 260 kts 38°
2026-04-25 08:39 21.02485 -156.33111 7422 ft 271 kts 38°
2026-04-25 08:39 21.03986 -156.31866 8182 ft 275 kts 37°
2026-04-25 08:40 21.05503 -156.30608 8970 ft 278 kts 37°
2026-04-25 08:40 21.07039 -156.29324 9720 ft 283 kts 37°
2026-04-25 08:40 21.08619 -156.28010 10267 ft 295 kts 37°
2026-04-25 08:40 21.10300 -156.26616 10546 ft 315 kts 37°
2026-04-25 08:41 21.12089 -156.25129 10801 ft 335 kts 37°
2026-04-25 08:41 21.13981 -156.23550 11037 ft 354 kts 37°
2026-04-25 08:41 21.15966 -156.21885 11276 ft 371 kts 37°
2026-04-25 08:41 21.18013 -156.20168 11520 ft 386 kts 37°
2026-04-25 08:42 21.20143 -156.18385 11996 ft 391 kts 37°
2026-04-25 08:42 21.22290 -156.16591 12598 ft 392 kts 37°
2026-04-25 08:42 21.24449 -156.14788 13155 ft 394 kts 37°
2026-04-25 08:42 21.26624 -156.12972 13657 ft 398 kts 37°
2026-04-25 08:43 21.28819 -156.11143 14136 ft 401 kts 37°
2026-04-25 08:43 21.31027 -156.09306 14571 ft 403 kts 37°
2026-04-25 08:43 21.33250 -156.07454 15022 ft 406 kts 37°
2026-04-25 08:43 21.35481 -156.05592 15453 ft 408 kts 38°
2026-04-25 08:44 21.37694 -156.03729 15871 ft 411 kts 38°
2026-04-25 08:44 21.39952 -156.01831 16262 ft 414 kts 38°
2026-04-25 08:44 21.42232 -155.99923 16670 ft 417 kts 38°
2026-04-25 08:44 21.44522 -155.97999 17096 ft 419 kts 38°
2026-04-25 08:45 21.46825 -155.96062 17510 ft 421 kts 38°
2026-04-25 08:45 21.49141 -155.94115 17931 ft 424 kts 38°
2026-04-25 08:45 21.51471 -155.92158 18351 ft 427 kts 38°
2026-04-25 08:45 21.53819 -155.90193 18729 ft 429 kts 38°
2026-04-25 08:46 21.56177 -155.88208 19076 ft 432 kts 38°
2026-04-25 08:46 21.58552 -155.86215 19435 ft 435 kts 38°
2026-04-25 08:46 21.60912 -155.84243 19847 ft 436 kts 38°
2026-04-25 08:46 21.63301 -155.82232 20284 ft 437 kts 38°
2026-04-25 08:47 21.65704 -155.80208 20702 ft 439 kts 38°
2026-04-25 08:47 21.68116 -155.78171 21102 ft 443 kts 38°
2026-04-25 08:47 21.70546 -155.76125 21555 ft 445 kts 38°
2026-04-25 08:47 21.72989 -155.74072 22047 ft 447 kts 38°
2026-04-25 08:48 21.75447 -155.72005 22492 ft 450 kts 38°
2026-04-25 08:48 21.77919 -155.69921 22913 ft 453 kts 39°
2026-04-25 08:48 21.80365 -155.67849 23400 ft 455 kts 39°
2026-04-25 08:48 21.82857 -155.65737 23817 ft 457 kts 39°
2026-04-25 08:49 21.85362 -155.63615 24198 ft 458 kts 39°
2026-04-25 08:49 21.87886 -155.61496 24528 ft 461 kts 38°
2026-04-25 08:49 21.90417 -155.59370 24855 ft 463 kts 38°
2026-04-25 08:49 21.92953 -155.57231 25257 ft 463 kts 39°
2026-04-25 08:50 21.95489 -155.55075 25614 ft 465 kts 38°
2026-04-25 08:50 21.98035 -155.52919 25971 ft 466 kts 38°
2026-04-25 08:50 22.00547 -155.50802 26449 ft 463 kts 38°
2026-04-25 08:50 22.03075 -155.48666 26957 ft 460 kts 38°
2026-04-25 08:51 22.05587 -155.46537 27448 ft 459 kts 38°
2026-04-25 08:51 22.08093 -155.44415 27869 ft 458 kts 38°
2026-04-25 08:51 22.10596 -155.42295 28264 ft 457 kts 38°
2026-04-25 08:51 22.13097 -155.40172 28635 ft 458 kts 38°
2026-04-25 08:52 22.15601 -155.38041 29023 ft 458 kts 38°
2026-04-25 08:52 22.18097 -155.35907 29393 ft 459 kts 38°
2026-04-25 08:52 22.20595 -155.33777 29864 ft 456 kts 38°
2026-04-25 08:52 22.23088 -155.31663 30301 ft 455 kts 38°
2026-04-25 08:53 22.25542 -155.29582 30643 ft 455 kts 38°
2026-04-25 08:53 22.28027 -155.27457 30897 ft 456 kts 38°
2026-04-25 08:53 22.30513 -155.25332 31202 ft 457 kts 38°
2026-04-25 08:53 22.33016 -155.23206 31457 ft 458 kts 38°
2026-04-25 08:54 22.35526 -155.21075 31733 ft 459 kts 38°
2026-04-25 08:54 22.38025 -155.18946 32077 ft 457 kts 37°
2026-04-25 08:54 22.40527 -155.16820 32355 ft 458 kts 37°
2026-04-25 08:54 22.43030 -155.14688 32614 ft 459 kts 37°
2026-04-25 08:55 22.45534 -155.12553 32889 ft 459 kts 38°
2026-04-25 08:55 22.48001 -155.10442 33171 ft 458 kts 37°
2026-04-25 08:55 22.50496 -155.08298 33461 ft 458 kts 37°
2026-04-25 08:55 22.52990 -155.06165 33710 ft 458 kts 37°
2026-04-25 08:56 22.55489 -155.04034 33956 ft 457 kts 37°
2026-04-25 08:56 22.57986 -155.01896 34177 ft 458 kts 37°
2026-04-25 08:56 22.60478 -154.99754 34360 ft 458 kts 37°
2026-04-25 08:56 22.62982 -154.97615 34545 ft 458 kts 36°
2026-04-25 08:57 22.65482 -154.95468 34708 ft 459 kts 37°
2026-04-25 08:57 22.67950 -154.93343 34874 ft 460 kts 37°
2026-04-25 08:57 22.70459 -154.91198 35052 ft 459 kts 37°
2026-04-25 08:57 22.72970 -154.89050 35168 ft 461 kts 37°
2026-04-25 08:58 22.75473 -154.86893 35171 ft 460 kts 36°
2026-04-25 08:58 22.80486 -154.82598 35144 ft 459 kts 37°
2026-04-25 08:59 22.85493 -154.78281 35140 ft 460 kts 36°
2026-04-25 08:59 22.90474 -154.73998 35141 ft 459 kts 37°
2026-04-25 09:00 22.95462 -154.69681 35136 ft 459 kts 37°
2026-04-25 09:00 23.00313 -154.65174 35139 ft 462 kts 46°
2026-04-25 09:01 23.04063 -154.59488 35138 ft 464 kts 56°
2026-04-25 09:01 23.07577 -154.53614 35135 ft 465 kts 54°
2026-04-25 09:02 23.11107 -154.47791 35134 ft 465 kts 55°
2026-04-25 09:02 23.14674 -154.41942 35138 ft 464 kts 54°
2026-04-25 09:03 23.18227 -154.36085 35139 ft 465 kts 54°
2026-04-25 09:03 23.21781 -154.30229 35137 ft 465 kts 55°
2026-04-25 09:04 23.25315 -154.24398 35133 ft 466 kts 55°
2026-04-25 09:04 23.28870 -154.18521 35139 ft 464 kts 55°
2026-04-25 09:05 23.32431 -154.12648 35133 ft 466 kts 54°
2026-04-25 09:05 23.35988 -154.06766 35134 ft 465 kts 55°
2026-04-25 09:06 23.39511 -154.00924 35133 ft 465 kts 54°
2026-04-25 09:06 23.43064 -153.95042 35130 ft 465 kts 55°
2026-04-25 09:07 23.46599 -153.89150 35129 ft 465 kts 54°
2026-04-25 09:07 23.50142 -153.83252 35122 ft 466 kts 55°
2026-04-25 09:08 23.53658 -153.77391 35134 ft 465 kts 55°
2026-04-25 09:08 23.57199 -153.71486 35135 ft 466 kts 55°
2026-04-25 09:09 23.60732 -153.65587 35129 ft 464 kts 55°
2026-04-25 09:09 23.64267 -153.59686 35133 ft 465 kts 55°
2026-04-25 09:10 23.67771 -153.53827 35127 ft 463 kts 55°
2026-04-25 09:10 23.71293 -153.47931 35127 ft 465 kts 55°
2026-04-25 09:11 23.76583 -153.39061 35136 ft 464 kts 55°
2026-04-25 09:11 23.80102 -153.33156 35141 ft 463 kts 56°
2026-04-25 09:12 23.83634 -153.27267 35138 ft 464 kts 55°
2026-04-25 09:12 23.87135 -153.21407 35130 ft 463 kts 55°
2026-04-25 09:13 23.90661 -153.15502 35132 ft 465 kts 55°
2026-04-25 09:13 23.94187 -153.09584 35125 ft 465 kts 56°
2026-04-25 09:14 23.97724 -153.03675 35115 ft 464 kts 55°
2026-04-25 09:14 24.01226 -152.97800 35148 ft 463 kts 56°
2026-04-25 09:15 24.04727 -152.91904 35135 ft 462 kts 56°
2026-04-25 09:15 24.08222 -152.86003 35130 ft 462 kts 56°
2026-04-25 09:16 24.11726 -152.80099 35141 ft 463 kts 55°
2026-04-25 09:16 24.15230 -152.74182 35131 ft 464 kts 56°
2026-04-25 09:17 24.20460 -152.65328 35140 ft 463 kts 56°
2026-04-25 09:18 24.23942 -152.59412 35127 ft 461 kts 56°
2026-04-25 09:18 24.27424 -152.53509 35126 ft 461 kts 56°
2026-04-25 09:19 24.30901 -152.47600 35130 ft 461 kts 56°
2026-04-25 09:19 24.34363 -152.41720 35124 ft 463 kts 56°
2026-04-25 09:20 24.37850 -152.35797 35127 ft 461 kts 56°
2026-04-25 09:20 24.41327 -152.29876 35140 ft 462 kts 56°
2026-04-25 09:21 24.44207 -152.24953 35141 ft 460 kts 56°
2026-04-25 09:21 24.48215 -152.18106 35138 ft 459 kts 56°
2026-04-25 09:22 24.51662 -152.12211 35136 ft 458 kts 56°
2026-04-25 09:22 24.54524 -152.07309 35129 ft 459 kts 56°
2026-04-25 09:23 24.57969 -152.01403 35135 ft 460 kts 56°
2026-04-25 09:23 24.61968 -151.94534 35132 ft 459 kts 56°
2026-04-25 09:24 24.64846 -151.89574 35136 ft 459 kts 56°
2026-04-25 09:24 24.68244 -151.83729 35138 ft 456 kts 56°
2026-04-25 09:25 24.71661 -151.77846 35138 ft 456 kts 56°
2026-04-25 09:25 24.75083 -151.71950 35137 ft 457 kts 56°
2026-04-25 09:26 24.78499 -151.66052 35145 ft 457 kts 56°
2026-04-25 09:26 24.81909 -151.60154 35136 ft 457 kts 56°
2026-04-25 09:27 24.85291 -151.54289 35136 ft 456 kts 56°
2026-04-25 09:27 24.88698 -151.48392 35145 ft 457 kts 56°
2026-04-25 09:28 24.92102 -151.42485 35136 ft 456 kts 56°
2026-04-25 09:28 24.95488 -151.36624 35141 ft 457 kts 55°
2026-04-25 09:29 24.98890 -151.30709 35149 ft 457 kts 56°
2026-04-25 09:29 25.02289 -151.24788 35140 ft 457 kts 56°
2026-04-25 09:30 25.05685 -151.18866 35151 ft 458 kts 56°
2026-04-25 09:30 25.09058 -151.12971 35150 ft 457 kts 56°
2026-04-25 09:31 25.12454 -151.07036 35150 ft 458 kts 56°
2026-04-25 09:31 25.15869 -151.01103 35144 ft 458 kts 55°
2026-04-25 09:32 25.19268 -150.95148 35139 ft 459 kts 56°
2026-04-25 09:32 25.22654 -150.89184 35149 ft 458 kts 56°
2026-04-25 09:33 25.26027 -150.83268 35148 ft 459 kts 55°
2026-04-25 09:33 25.29423 -150.77311 35152 ft 458 kts 56°
2026-04-25 09:34 25.32794 -150.71327 35157 ft 458 kts 56°
2026-04-25 09:34 25.36183 -150.65349 35149 ft 459 kts 56°
2026-04-25 09:35 25.39554 -150.59414 35145 ft 459 kts 56°
2026-04-25 09:35 25.42948 -150.53435 35146 ft 459 kts 56°
2026-04-25 09:36 25.46317 -150.47438 35159 ft 458 kts 56°
2026-04-25 09:36 25.49707 -150.41444 35156 ft 460 kts 55°
2026-04-25 09:37 25.53077 -150.35479 35156 ft 460 kts 56°
2026-04-25 09:37 25.56465 -150.29468 35158 ft 460 kts 55°
2026-04-25 09:38 25.59832 -150.23439 35152 ft 460 kts 56°
2026-04-25 09:38 25.63197 -150.17397 35159 ft 460 kts 56°
2026-04-25 09:39 25.66552 -150.11413 35164 ft 460 kts 56°
2026-04-25 09:39 25.69924 -150.05393 35165 ft 460 kts 56°
2026-04-25 09:40 25.74975 -149.96341 35166 ft 460 kts 55°
2026-04-25 09:40 25.78352 -149.90313 35165 ft 460 kts 56°
2026-04-25 09:41 25.81724 -149.84274 35162 ft 461 kts 56°
2026-04-25 09:41 25.85073 -149.78260 35170 ft 462 kts 56°
2026-04-25 09:42 25.88439 -149.72208 35165 ft 461 kts 56°
2026-04-25 09:42 25.91807 -149.66131 35169 ft 462 kts 56°
2026-04-25 09:43 25.95184 -149.60064 35171 ft 461 kts 56°
2026-04-25 09:43 25.98567 -149.53986 35172 ft 463 kts 56°
2026-04-25 09:44 26.01913 -149.47939 35173 ft 462 kts 56°
2026-04-25 09:44 26.05262 -149.41832 35172 ft 463 kts 56°
2026-04-25 09:45 26.08641 -149.35726 35170 ft 463 kts 56°
2026-04-25 09:45 26.12008 -149.29618 35174 ft 464 kts 56°
2026-04-25 09:46 26.15350 -149.23539 35175 ft 464 kts 56°
2026-04-25 09:46 26.18699 -149.17407 35173 ft 464 kts 56°
2026-04-25 09:47 26.22046 -149.11267 35179 ft 463 kts 56°
2026-04-25 09:47 26.25400 -149.05141 35176 ft 463 kts 56°
2026-04-25 09:48 26.28734 -148.99041 35181 ft 464 kts 56°
2026-04-25 09:48 26.32101 -148.92900 35182 ft 464 kts 56°
2026-04-25 09:49 26.35459 -148.86753 35184 ft 464 kts 56°
2026-04-25 09:49 26.38800 -148.80586 35192 ft 464 kts 56°
2026-04-25 09:50 26.42115 -148.74470 35186 ft 464 kts 56°
2026-04-25 09:50 26.45455 -148.68312 35186 ft 464 kts 56°
2026-04-25 09:51 26.48801 -148.62153 35182 ft 464 kts 56°
2026-04-25 09:51 26.52136 -148.55988 35194 ft 464 kts 56°
2026-04-25 09:52 26.55447 -148.49864 35190 ft 464 kts 56°
2026-04-25 09:52 26.58800 -148.43696 35204 ft 465 kts 56°
2026-04-25 09:53 26.62143 -148.37507 35197 ft 465 kts 56°
2026-04-25 09:53 26.65476 -148.31314 35195 ft 465 kts 56°
2026-04-25 09:54 26.68811 -148.25116 35195 ft 465 kts 56°
2026-04-25 09:54 26.72125 -148.18957 35202 ft 465 kts 56°
2026-04-25 09:55 26.75462 -148.12745 35209 ft 466 kts 56°
2026-04-25 09:55 26.78793 -148.06526 35205 ft 466 kts 56°
2026-04-25 09:56 26.82126 -148.00302 35202 ft 466 kts 56°
2026-04-25 09:56 26.85468 -147.94082 35202 ft 466 kts 56°
2026-04-25 09:57 26.88786 -147.87889 35204 ft 467 kts 56°
2026-04-25 09:57 26.92112 -147.81635 35202 ft 467 kts 56°
2026-04-25 09:58 26.95427 -147.75373 35206 ft 467 kts 56°
2026-04-25 09:58 26.98744 -147.69109 35207 ft 467 kts 56°
2026-04-25 09:59 27.02050 -147.62897 35204 ft 468 kts 56°
2026-04-25 09:59 27.05376 -147.56622 35204 ft 468 kts 56°
2026-04-25 10:00 27.08712 -147.50345 35208 ft 468 kts 56°
2026-04-25 10:00 27.12035 -147.44062 35211 ft 468 kts 56°
2026-04-25 10:01 27.15342 -147.37765 35219 ft 468 kts 56°
2026-04-25 10:01 27.18649 -147.31508 35211 ft 469 kts 56°
2026-04-25 10:02 27.21967 -147.25185 35215 ft 470 kts 56°
2026-04-25 10:02 27.25064 -147.18715 35216 ft 472 kts 60°
2026-04-25 10:03 27.27924 -147.12080 35220 ft 471 kts 60°
2026-04-25 10:03 27.30760 -147.05499 35215 ft 471 kts 61°
2026-04-25 10:04 27.33615 -146.98863 35216 ft 471 kts 61°
2026-04-25 10:04 27.36456 -146.92218 35216 ft 471 kts 61°
2026-04-25 10:05 27.39310 -146.85583 35215 ft 471 kts 60°
2026-04-25 10:05 27.42131 -146.78988 35225 ft 470 kts 60°
2026-04-25 10:06 27.44965 -146.72360 35217 ft 470 kts 61°
2026-04-25 10:06 27.47772 -146.65715 35218 ft 470 kts 61°
2026-04-25 10:07 27.50594 -146.59076 35215 ft 470 kts 61°
2026-04-25 10:07 27.53422 -146.52448 35223 ft 470 kts 61°
2026-04-25 10:08 27.56230 -146.45855 35218 ft 470 kts 60°
2026-04-25 10:08 27.59052 -146.39216 35225 ft 470 kts 61°
2026-04-25 10:09 27.61856 -146.32561 35221 ft 470 kts 61°
2026-04-25 10:09 27.64669 -146.25912 35222 ft 470 kts 60°
2026-04-25 10:10 27.67456 -146.19300 35220 ft 470 kts 60°
2026-04-25 10:10 27.70259 -146.12642 35227 ft 470 kts 61°
2026-04-25 10:11 27.73067 -146.05980 35230 ft 470 kts 61°
2026-04-25 10:11 27.75864 -145.99313 35228 ft 470 kts 61°
2026-04-25 10:12 27.78650 -145.92639 35227 ft 470 kts 61°
2026-04-25 10:13 27.82806 -145.82667 35225 ft 470 kts 61°
2026-04-25 10:13 27.85598 -145.75994 35230 ft 469 kts 61°
2026-04-25 10:14 27.88389 -145.69329 35232 ft 469 kts 61°
2026-04-25 10:14 27.91169 -145.62654 35228 ft 469 kts 61°
2026-04-25 10:15 27.93941 -145.56038 35231 ft 469 kts 61°
2026-04-25 10:15 27.96714 -145.49362 35227 ft 469 kts 61°
2026-04-25 10:16 27.99486 -145.42687 35236 ft 469 kts 61°
2026-04-25 10:16 28.02253 -145.36005 35246 ft 469 kts 60°
2026-04-25 10:17 28.04998 -145.29374 35231 ft 469 kts 61°
2026-04-25 10:17 28.07742 -145.22681 35230 ft 468 kts 61°
2026-04-25 10:18 28.10500 -145.16001 35234 ft 468 kts 61°
2026-04-25 10:18 28.13218 -145.09349 35234 ft 469 kts 61°
2026-04-25 10:19 28.15965 -145.02654 35231 ft 468 kts 61°
2026-04-25 10:19 28.18695 -144.95948 35236 ft 469 kts 62°
2026-04-25 10:20 28.21407 -144.89231 35232 ft 469 kts 61°
2026-04-25 10:20 28.24147 -144.82525 35237 ft 468 kts 61°
2026-04-25 10:21 28.26863 -144.75866 35237 ft 469 kts 61°
2026-04-25 10:21 28.29599 -144.69149 35238 ft 469 kts 61°
2026-04-25 10:22 28.32326 -144.62426 35235 ft 469 kts 61°
2026-04-25 10:22 28.35056 -144.55706 35236 ft 469 kts 61°
2026-04-25 10:23 28.37764 -144.49030 35234 ft 469 kts 61°
2026-04-25 10:23 28.40479 -144.42294 35234 ft 469 kts 61°
2026-04-25 10:24 28.43190 -144.35556 35233 ft 469 kts 61°
2026-04-25 10:24 28.45904 -144.28831 35242 ft 468 kts 61°
2026-04-25 10:25 28.48581 -144.22147 35235 ft 468 kts 62°
2026-04-25 10:25 28.51279 -144.15415 35234 ft 468 kts 61°
2026-04-25 10:26 28.53979 -144.08679 35230 ft 468 kts 61°
2026-04-25 10:26 28.56669 -144.01941 35230 ft 468 kts 61°
2026-04-25 10:27 28.59355 -143.95195 35235 ft 468 kts 61°
2026-04-25 10:27 28.62028 -143.88486 35233 ft 468 kts 61°
2026-04-25 10:28 28.64715 -143.81735 35232 ft 468 kts 62°
2026-04-25 10:28 28.67391 -143.74974 35234 ft 468 kts 62°
2026-04-25 10:29 28.70069 -143.68211 35233 ft 468 kts 62°
2026-04-25 10:29 28.72742 -143.61451 35243 ft 468 kts 61°
2026-04-25 10:30 28.75402 -143.54740 35233 ft 468 kts 61°
2026-04-25 10:30 28.78072 -143.47978 35237 ft 468 kts 61°
2026-04-25 10:31 28.80731 -143.41208 35235 ft 468 kts 62°
2026-04-25 10:31 28.83384 -143.34439 35234 ft 468 kts 62°
2026-04-25 10:32 28.86020 -143.27716 35237 ft 468 kts 62°
2026-04-25 10:32 28.88665 -143.20932 35233 ft 468 kts 62°
2026-04-25 10:33 28.91313 -143.14137 35230 ft 468 kts 62°
2026-04-25 10:33 28.93974 -143.07358 35234 ft 468 kts 62°
2026-04-25 10:34 28.96615 -143.00560 35240 ft 468 kts 62°
2026-04-25 10:34 28.99230 -142.93793 35231 ft 469 kts 62°
2026-04-25 10:35 29.01870 -142.86982 35233 ft 469 kts 62°
2026-04-25 10:35 29.04497 -142.80160 35231 ft 469 kts 62°
2026-04-25 10:36 29.07114 -142.73333 35238 ft 469 kts 62°
2026-04-25 10:36 29.09729 -142.66547 35227 ft 470 kts 62°
2026-04-25 10:37 29.12359 -142.59717 35240 ft 469 kts 62°
2026-04-25 10:37 29.14983 -142.52883 35233 ft 469 kts 62°
2026-04-25 10:38 29.17606 -142.46041 35231 ft 470 kts 62°
2026-04-25 10:38 29.20222 -142.39189 35229 ft 470 kts 62°
2026-04-25 10:39 29.22822 -142.32384 35243 ft 470 kts 62°
2026-04-25 10:39 29.25435 -142.25529 35234 ft 470 kts 62°
2026-04-25 10:40 29.28049 -142.18664 35230 ft 470 kts 61°
2026-04-25 10:40 29.30682 -142.11811 35232 ft 470 kts 61°
2026-04-25 10:41 29.33275 -142.04987 35230 ft 470 kts 62°
2026-04-25 10:41 29.35891 -141.98115 35237 ft 471 kts 62°
2026-04-25 10:42 29.38489 -141.91229 35229 ft 471 kts 62°
2026-04-25 10:42 29.41079 -141.84336 35227 ft 471 kts 62°
2026-04-25 10:43 29.43661 -141.77489 35228 ft 471 kts 62°
2026-04-25 10:43 29.46263 -141.70587 35226 ft 471 kts 62°
2026-04-25 10:44 29.48856 -141.63681 35232 ft 471 kts 62°
2026-04-25 10:44 29.51436 -141.56768 35230 ft 471 kts 62°
2026-04-25 10:45 29.54025 -141.49847 35230 ft 472 kts 62°
2026-04-25 10:45 29.56584 -141.42964 35229 ft 472 kts 62°
2026-04-25 10:46 29.59128 -141.36010 35243 ft 472 kts 62°
2026-04-25 10:46 29.61705 -141.29070 35247 ft 474 kts 61°
2026-04-25 10:47 29.64294 -141.22101 35236 ft 474 kts 62°
2026-04-25 10:47 29.66859 -141.15166 35229 ft 474 kts 62°
2026-04-25 10:48 29.69455 -141.08191 35228 ft 475 kts 62°
2026-04-25 10:48 29.72038 -141.01204 35231 ft 475 kts 62°
2026-04-25 10:49 29.74619 -140.94211 35228 ft 475 kts 62°
2026-04-25 10:49 29.77181 -140.87206 35235 ft 475 kts 62°
2026-04-25 10:50 29.79734 -140.80243 35228 ft 475 kts 62°
2026-04-25 10:50 29.82296 -140.73224 35227 ft 476 kts 62°
2026-04-25 10:51 29.84866 -140.66208 35230 ft 476 kts 62°
2026-04-25 10:51 29.87423 -140.59177 35227 ft 476 kts 62°
2026-04-25 10:52 29.89969 -140.52194 35228 ft 476 kts 62°
2026-04-25 10:52 29.92530 -140.45157 35225 ft 476 kts 62°
2026-04-25 10:53 29.95067 -140.38108 35231 ft 477 kts 63°
2026-04-25 10:53 29.97433 -140.30946 35230 ft 478 kts 64°
2026-04-25 10:54 29.99772 -140.23830 35225 ft 478 kts 64°
2026-04-25 10:54 30.02113 -140.16657 35245 ft 478 kts 64°
2026-04-25 10:55 30.04460 -140.09481 35240 ft 478 kts 64°
2026-04-25 10:55 30.06808 -140.02310 35230 ft 477 kts 64°
2026-04-25 10:56 30.09126 -139.95183 35233 ft 478 kts 64°
2026-04-25 10:56 30.11461 -139.88004 35224 ft 478 kts 64°
2026-04-25 10:57 30.13789 -139.80816 35239 ft 478 kts 64°
2026-04-25 10:57 30.16109 -139.73635 35232 ft 477 kts 64°
2026-04-25 10:58 30.18424 -139.66434 35225 ft 478 kts 64°
2026-04-25 10:58 30.20714 -139.59265 35221 ft 478 kts 64°
2026-04-25 10:59 30.23034 -139.52065 35233 ft 478 kts 63°
2026-04-25 10:59 30.25348 -139.44844 35233 ft 479 kts 63°
2026-04-25 11:00 30.27633 -139.37664 35227 ft 479 kts 63°
2026-04-25 11:00 30.29941 -139.30438 35229 ft 479 kts 63°
2026-04-25 11:01 30.32247 -139.23198 35226 ft 480 kts 63°
2026-04-25 11:01 30.34556 -139.15949 35243 ft 480 kts 63°
2026-04-25 11:02 30.36849 -139.08750 35225 ft 480 kts 63°
2026-04-25 11:02 30.39157 -139.01494 35222 ft 480 kts 63°
2026-04-25 11:03 30.41444 -138.94222 35221 ft 481 kts 63°
2026-04-25 11:03 30.43734 -138.86945 35241 ft 481 kts 63°
2026-04-25 11:04 30.46007 -138.79719 35227 ft 480 kts 63°
2026-04-25 11:04 30.48296 -138.72445 35221 ft 480 kts 63°
2026-04-25 11:05 30.50568 -138.65165 35225 ft 480 kts 63°
2026-04-25 11:05 30.52849 -138.57870 35218 ft 481 kts 63°
2026-04-25 11:06 30.55131 -138.50569 35221 ft 481 kts 63°
2026-04-25 11:06 30.57381 -138.43314 35227 ft 481 kts 63°
2026-04-25 11:07 30.59653 -138.35999 35213 ft 482 kts 63°
2026-04-25 11:07 30.61921 -138.28678 35212 ft 482 kts 63°
2026-04-25 11:08 30.64185 -138.21351 35214 ft 482 kts 63°
2026-04-25 11:08 30.66427 -138.14070 35214 ft 482 kts 63°
2026-04-25 11:09 30.68689 -138.06737 35216 ft 482 kts 63°
2026-04-25 11:09 30.70944 -137.99397 35235 ft 483 kts 63°
2026-04-25 11:10 30.73200 -137.92049 35226 ft 482 kts 63°
2026-04-25 11:10 30.75432 -137.84751 35215 ft 482 kts 63°
2026-04-25 11:11 30.77677 -137.77400 35211 ft 483 kts 63°
2026-04-25 11:11 30.79916 -137.70044 35210 ft 483 kts 63°
2026-04-25 11:12 30.82158 -137.62676 35206 ft 483 kts 63°
2026-04-25 11:12 30.84394 -137.55306 35214 ft 484 kts 63°
2026-04-25 11:13 30.86608 -137.47964 35211 ft 484 kts 63°
2026-04-25 11:13 30.88834 -137.40566 35202 ft 484 kts 64°
2026-04-25 11:14 30.91058 -137.33167 35216 ft 484 kts 63°
2026-04-25 11:14 30.93276 -137.25771 35207 ft 484 kts 63°
2026-04-25 11:15 30.95490 -137.18364 35200 ft 484 kts 63°
2026-04-25 11:15 30.97691 -137.11006 35204 ft 484 kts 63°
2026-04-25 11:16 31.00993 -136.99891 35206 ft 483 kts 63°
2026-04-25 11:16 31.03192 -136.92491 35203 ft 484 kts 63°
2026-04-25 11:17 31.05372 -136.85124 35201 ft 484 kts 63°
2026-04-25 11:17 31.07568 -136.77714 35214 ft 483 kts 63°
2026-04-25 11:18 31.09748 -136.70307 35201 ft 483 kts 63°
2026-04-25 11:18 31.11924 -136.62894 35198 ft 483 kts 63°
2026-04-25 11:19 31.14082 -136.55530 35197 ft 483 kts 63°
2026-04-25 11:19 31.16253 -136.48100 35220 ft 483 kts 63°
2026-04-25 11:20 31.18414 -136.40683 35197 ft 482 kts 63°
2026-04-25 11:20 31.20574 -136.33267 35197 ft 483 kts 63°
2026-04-25 11:21 31.22719 -136.25880 35190 ft 484 kts 64°
2026-04-25 11:21 31.24870 -136.18439 35212 ft 482 kts 64°
2026-04-25 11:22 31.26652 -136.12261 35197 ft 483 kts 64°
2026-04-25 11:22 31.29162 -136.03551 35187 ft 484 kts 64°
2026-04-25 11:23 31.31290 -135.96146 35189 ft 484 kts 64°
2026-04-25 11:23 31.33430 -135.88682 35201 ft 483 kts 64°
2026-04-25 11:24 31.35551 -135.81220 35186 ft 484 kts 65°
2026-04-25 11:24 31.37671 -135.73747 35186 ft 484 kts 65°
2026-04-25 11:25 31.39786 -135.66314 35211 ft 485 kts 65°
2026-04-25 11:25 31.41905 -135.58840 35196 ft 483 kts 65°
2026-04-25 11:26 31.44022 -135.51371 35177 ft 484 kts 65°
2026-04-25 11:26 31.46139 -135.43881 35178 ft 484 kts 65°
2026-04-25 11:27 31.48237 -135.36445 35194 ft 483 kts 66°
2026-04-25 11:27 31.49999 -135.30178 35180 ft 483 kts 66°
2026-04-25 11:28 31.52441 -135.21478 35176 ft 484 kts 66°
2026-04-25 11:28 31.54535 -135.13981 35172 ft 485 kts 66°
2026-04-25 11:29 31.56627 -135.06482 35186 ft 482 kts 67°
2026-04-25 11:29 31.58705 -134.99057 35167 ft 483 kts 67°
2026-04-25 11:30 31.60793 -134.91552 35173 ft 484 kts 67°
2026-04-25 11:30 31.62876 -134.84039 35175 ft 484 kts 67°
2026-04-25 11:31 31.64940 -134.76570 35165 ft 484 kts 67°
2026-04-25 11:31 31.67010 -134.69048 35166 ft 484 kts 67°
2026-04-25 11:32 31.69075 -134.61520 35182 ft 484 kts 67°
2026-04-25 11:32 31.71139 -134.53988 35161 ft 485 kts 68°
2026-04-25 11:33 31.73198 -134.46452 35144 ft 485 kts 68°
2026-04-25 11:33 31.75243 -134.38948 35177 ft 486 kts 68°
2026-04-25 11:34 31.77301 -134.31385 35161 ft 486 kts 68°
2026-04-25 11:34 31.79353 -134.23817 35164 ft 486 kts 68°
2026-04-25 11:35 31.81403 -134.16236 35162 ft 487 kts 68°
2026-04-25 11:35 31.83437 -134.08693 35156 ft 487 kts 68°
2026-04-25 11:36 31.85479 -134.01105 35169 ft 487 kts 68°
2026-04-25 11:36 31.87523 -133.93500 35161 ft 487 kts 68°
2026-04-25 11:37 31.89556 -133.85897 35157 ft 487 kts 68°
2026-04-25 11:37 31.91586 -133.78285 35162 ft 487 kts 68°
2026-04-25 11:38 31.93597 -133.70721 35151 ft 487 kts 68°
2026-04-25 11:38 31.95616 -133.63102 35168 ft 487 kts 68°
2026-04-25 11:39 31.97637 -133.55475 35155 ft 488 kts 68°
2026-04-25 11:39 31.99658 -133.47839 35149 ft 488 kts 68°
2026-04-25 11:40 32.01644 -133.40244 35165 ft 489 kts 69°
2026-04-25 11:40 32.03647 -133.32596 35150 ft 489 kts 69°
2026-04-25 11:41 32.05651 -133.24942 35147 ft 489 kts 69°
2026-04-25 11:41 32.07647 -133.17284 35148 ft 488 kts 69°
2026-04-25 11:42 32.09642 -133.09625 35147 ft 488 kts 69°
2026-04-25 11:42 32.11620 -133.02021 35159 ft 488 kts 69°
2026-04-25 11:43 32.13604 -132.94363 35139 ft 488 kts 70°
2026-04-25 11:43 32.15586 -132.86711 35156 ft 488 kts 70°
2026-04-25 11:44 32.18099 -132.79402 35146 ft 482 kts 58°
2026-04-25 11:44 32.21226 -132.72409 35145 ft 482 kts 58°
2026-04-25 11:45 32.24343 -132.65399 35141 ft 482 kts 58°
2026-04-25 11:45 32.27454 -132.58386 35144 ft 482 kts 59°
2026-04-25 11:46 32.30556 -132.51348 35141 ft 483 kts 59°
2026-04-25 11:46 32.33632 -132.44354 35139 ft 483 kts 59°
2026-04-25 11:47 32.36732 -132.37308 35146 ft 483 kts 59°
2026-04-25 11:47 32.39828 -132.30263 35139 ft 483 kts 59°
2026-04-25 11:48 32.42914 -132.23211 35138 ft 483 kts 59°
2026-04-25 11:48 32.45979 -132.16202 35141 ft 482 kts 60°
2026-04-25 11:49 32.49066 -132.09151 35136 ft 482 kts 60°
2026-04-25 11:49 32.52133 -132.02090 35136 ft 482 kts 60°
2026-04-25 11:50 32.55196 -131.95017 35134 ft 482 kts 60°
2026-04-25 11:50 32.58245 -131.87993 35132 ft 482 kts 60°
2026-04-25 11:51 32.61307 -131.80916 35133 ft 482 kts 60°
2026-04-25 11:51 32.64370 -131.73837 35140 ft 482 kts 60°
2026-04-25 11:52 32.67423 -131.66753 35133 ft 482 kts 60°
2026-04-25 11:52 32.70476 -131.59670 35128 ft 482 kts 60°
2026-04-25 11:53 32.73508 -131.52630 35137 ft 482 kts 60°
2026-04-25 11:53 32.76547 -131.45534 35127 ft 482 kts 60°
2026-04-25 11:54 32.79585 -131.38432 35127 ft 482 kts 60°
2026-04-25 11:55 32.84130 -131.27769 35129 ft 482 kts 61°
2026-04-25 11:55 32.87138 -131.20698 35127 ft 482 kts 61°
2026-04-25 11:56 32.90162 -131.13577 35126 ft 482 kts 61°
2026-04-25 11:56 32.93184 -131.06447 35130 ft 482 kts 61°
2026-04-25 11:57 32.96211 -130.99317 35125 ft 482 kts 61°
2026-04-25 11:57 32.99201 -130.92228 35124 ft 482 kts 61°
2026-04-25 11:58 33.02218 -130.85088 35127 ft 483 kts 61°
2026-04-25 11:58 33.05224 -130.77934 35124 ft 483 kts 61°
2026-04-25 11:59 33.07723 -130.71992 35122 ft 482 kts 61°
2026-04-25 11:59 33.11209 -130.63671 35121 ft 482 kts 62°
2026-04-25 12:00 33.15696 -130.52923 35124 ft 482 kts 62°
2026-04-25 12:01 33.19666 -130.43377 35124 ft 483 kts 62°
2026-04-25 12:01 33.23137 -130.35031 35116 ft 483 kts 62°
2026-04-25 12:02 33.27101 -130.25462 35117 ft 483 kts 62°
2026-04-25 12:02 33.30062 -130.18258 35113 ft 483 kts 62°
2026-04-25 12:03 33.33033 -130.11052 35111 ft 483 kts 62°
2026-04-25 12:03 33.36003 -130.03843 35113 ft 483 kts 62°
2026-04-25 12:04 33.38968 -129.96623 35114 ft 484 kts 63°
2026-04-25 12:04 33.41914 -129.89435 35111 ft 484 kts 63°
2026-04-25 12:05 33.44868 -129.82194 35106 ft 484 kts 63°
2026-04-25 12:05 33.47822 -129.74952 35109 ft 484 kts 63°
2026-04-25 12:06 33.50776 -129.67700 35113 ft 484 kts 63°
2026-04-25 12:06 33.53706 -129.60496 35106 ft 484 kts 63°
2026-04-25 12:07 33.56650 -129.53237 35105 ft 484 kts 63°
2026-04-25 12:07 33.59594 -129.45973 35103 ft 484 kts 63°
2026-04-25 12:08 33.62528 -129.38707 35103 ft 484 kts 63°
2026-04-25 12:08 33.65465 -129.31438 35105 ft 484 kts 64°
2026-04-25 12:09 33.68378 -129.24206 35099 ft 484 kts 64°
2026-04-25 12:09 33.71297 -129.16916 35095 ft 484 kts 64°
2026-04-25 12:10 33.74211 -129.09630 35096 ft 484 kts 64°
2026-04-25 12:10 33.77129 -129.02329 35096 ft 484 kts 64°
2026-04-25 12:11 33.80033 -128.95083 35097 ft 484 kts 64°
2026-04-25 12:11 33.82940 -128.87771 35094 ft 484 kts 64°
2026-04-25 12:12 33.85763 -128.80418 35090 ft 484 kts 70°
2026-04-25 12:12 33.86628 -128.76514 35090 ft 483 kts 82°
2026-04-25 12:12 33.86894 -128.72491 35091 ft 482 kts 89°
2026-04-25 12:13 33.87058 -128.64488 35087 ft 482 kts 90°
2026-04-25 12:13 33.87249 -128.56429 35086 ft 482 kts 90°
2026-04-25 12:14 33.87462 -128.48377 35085 ft 482 kts 90°
2026-04-25 12:14 33.87670 -128.40318 35083 ft 482 kts 90°
2026-04-25 12:15 33.87875 -128.32259 35083 ft 482 kts 90°
2026-04-25 12:15 33.88074 -128.24259 35082 ft 482 kts 90°
2026-04-25 12:16 33.88259 -128.16201 35078 ft 482 kts 90°
2026-04-25 12:16 33.88449 -128.08140 35067 ft 483 kts 90°
2026-04-25 12:17 33.88633 -128.00032 35072 ft 485 kts 90°
2026-04-25 12:17 33.88810 -127.91912 35070 ft 485 kts 91°
2026-04-25 12:18 33.88982 -127.83849 35073 ft 485 kts 91°
2026-04-25 12:18 33.89152 -127.75730 35070 ft 485 kts 91°
2026-04-25 12:19 33.89395 -127.63559 35068 ft 484 kts 91°
2026-04-25 12:20 33.89547 -127.55457 35069 ft 484 kts 91°
2026-04-25 12:20 33.89696 -127.47416 35044 ft 484 kts 91°
2026-04-25 12:21 33.89842 -127.39274 35060 ft 487 kts 92°
2026-04-25 12:21 33.89976 -127.31113 35061 ft 488 kts 92°
2026-04-25 12:22 33.90110 -127.22952 35056 ft 488 kts 92°
2026-04-25 12:22 33.90239 -127.14794 35061 ft 487 kts 92°
2026-04-25 12:23 33.90361 -127.06695 35058 ft 487 kts 92°
2026-04-25 12:23 33.90480 -126.98537 35046 ft 487 kts 93°
2026-04-25 12:24 33.90588 -126.90375 35051 ft 488 kts 93°
2026-04-25 12:24 33.90697 -126.82200 35045 ft 490 kts 93°
2026-04-25 12:25 33.90799 -126.74046 35041 ft 491 kts 94°
2026-04-25 12:25 33.90890 -126.65825 35051 ft 491 kts 94°
2026-04-25 12:26 33.90978 -126.57608 35051 ft 491 kts 94°
2026-04-25 12:26 33.91068 -126.49388 35043 ft 491 kts 94°
2026-04-25 12:27 33.91152 -126.41222 35047 ft 491 kts 94°
2026-04-25 12:27 33.91221 -126.33003 35047 ft 491 kts 94°
2026-04-25 12:28 33.91286 -126.24784 35042 ft 491 kts 94°
2026-04-25 12:28 33.91348 -126.16532 35041 ft 495 kts 94°
2026-04-25 12:29 33.91409 -126.08241 35048 ft 495 kts 94°
2026-04-25 12:29 33.91469 -126.00003 35042 ft 495 kts 94°
2026-04-25 12:30 33.91519 -125.91714 35046 ft 495 kts 95°
2026-04-25 12:30 33.91557 -125.83424 35041 ft 495 kts 95°
2026-04-25 12:31 33.91593 -125.75134 35035 ft 495 kts 95°
2026-04-25 12:31 33.91621 -125.66907 35041 ft 495 kts 95°
2026-04-25 12:32 33.91648 -125.58623 35041 ft 495 kts 95°
2026-04-25 12:32 33.91670 -125.50315 35032 ft 497 kts 95°
2026-04-25 12:33 33.91681 -125.42002 35037 ft 497 kts 95°
2026-04-25 12:33 33.91695 -125.33738 35033 ft 498 kts 95°
2026-04-25 12:34 33.91688 -125.25408 35033 ft 498 kts 95°
2026-04-25 12:34 33.91673 -125.17074 35030 ft 498 kts 95°
2026-04-25 12:35 33.91665 -125.08745 35029 ft 498 kts 95°
2026-04-25 12:35 33.91647 -125.00416 35032 ft 498 kts 95°
2026-04-25 12:36 33.91723 -124.92133 35025 ft 502 kts 89°
2026-04-25 12:36 33.93104 -124.83826 35024 ft 508 kts 80°
2026-04-25 12:37 33.94716 -124.75546 35027 ft 508 kts 80°
2026-04-25 12:37 33.96299 -124.67254 35018 ft 508 kts 81°
2026-04-25 12:38 33.97832 -124.59001 35023 ft 508 kts 81°
2026-04-25 12:38 33.99384 -124.50686 35021 ft 508 kts 81°
2026-04-25 12:39 34.00920 -124.42365 35012 ft 509 kts 80°
2026-04-25 12:39 34.02457 -124.34036 35019 ft 509 kts 81°
2026-04-25 12:40 34.03985 -124.25700 35020 ft 509 kts 81°
2026-04-25 12:40 34.05487 -124.17416 35024 ft 509 kts 81°
2026-04-25 12:41 34.07011 -124.09070 35018 ft 509 kts 80°
2026-04-25 12:41 34.08539 -124.00728 35007 ft 509 kts 81°
2026-04-25 12:42 34.10055 -123.92382 35010 ft 510 kts 80°
2026-04-25 12:42 34.11558 -123.84074 35012 ft 510 kts 81°
2026-04-25 12:43 34.13071 -123.75711 35008 ft 510 kts 80°
2026-04-25 12:43 34.15314 -123.63157 35003 ft 511 kts 80°
2026-04-25 12:44 34.16809 -123.54772 35008 ft 511 kts 80°
2026-04-25 12:45 34.19029 -123.42243 35003 ft 511 kts 81°
2026-04-25 12:45 34.21231 -123.29651 35003 ft 511 kts 81°
2026-04-25 12:46 34.22704 -123.21256 34993 ft 511 kts 81°
2026-04-25 12:46 34.24162 -123.12844 34994 ft 511 kts 81°
2026-04-25 12:47 34.24697 -123.04428 35007 ft 504 kts 97°
2026-04-25 12:47 34.24299 -122.95982 35004 ft 503 kts 97°
2026-04-25 12:48 34.23894 -122.87538 34993 ft 503 kts 97°
2026-04-25 12:48 34.23501 -122.79089 35002 ft 503 kts 97°
2026-04-25 12:49 34.23122 -122.70698 34997 ft 504 kts 97°
2026-04-25 12:49 34.22723 -122.62254 34998 ft 503 kts 97°
2026-04-25 12:50 34.22325 -122.53803 34996 ft 504 kts 97°
2026-04-25 12:50 34.21918 -122.45358 34989 ft 503 kts 97°
2026-04-25 12:51 34.21503 -122.36916 34995 ft 504 kts 97°
2026-04-25 12:51 34.21090 -122.28522 34996 ft 504 kts 97°
2026-04-25 12:52 34.20687 -122.20072 34992 ft 504 kts 97°
2026-04-25 12:52 34.20262 -122.11621 34991 ft 504 kts 97°
2026-04-25 12:53 34.19834 -122.03176 34984 ft 503 kts 97°
2026-04-25 12:53 34.19398 -121.94745 34993 ft 503 kts 97°
2026-04-25 12:54 34.18971 -121.86374 34975 ft 503 kts 97°
2026-04-25 12:54 34.18517 -121.77949 34977 ft 503 kts 97°
2026-04-25 12:55 34.18138 -121.70950 34984 ft 502 kts 97°
2026-04-25 12:55 34.17610 -121.61105 34985 ft 502 kts 97°
2026-04-25 12:56 34.17125 -121.52695 34983 ft 502 kts 97°
2026-04-25 12:56 34.16664 -121.44337 34978 ft 502 kts 97°
2026-04-25 12:57 34.16186 -121.35926 34981 ft 502 kts 98°
2026-04-25 12:57 34.15705 -121.27516 34980 ft 502 kts 98°
2026-04-25 12:58 34.15200 -121.19112 34980 ft 502 kts 98°
2026-04-25 12:58 34.14724 -121.10807 34581 ft 496 kts 98°
2026-04-25 12:59 34.14481 -121.06617 33517 ft 503 kts 97°
2026-04-25 12:59 34.14219 -121.02403 32682 ft 503 kts 97°
2026-04-25 12:59 34.14013 -120.98202 31978 ft 502 kts 93°
2026-04-25 12:59 34.14217 -120.93993 31274 ft 503 kts 86°
2026-04-25 13:00 34.14556 -120.89793 30582 ft 503 kts 86°
2026-04-25 13:00 34.14795 -120.87015 30105 ft 503 kts 85°
2026-04-25 13:00 34.15267 -120.81457 28996 ft 502 kts 86°
2026-04-25 13:00 34.15598 -120.77275 28294 ft 498 kts 86°
2026-04-25 13:01 34.15923 -120.73124 27641 ft 494 kts 86°
2026-04-25 13:01 34.16248 -120.69013 27007 ft 491 kts 86°
2026-04-25 13:01 34.16574 -120.64924 26358 ft 488 kts 86°
2026-04-25 13:01 34.16895 -120.60861 25734 ft 485 kts 86°
2026-04-25 13:02 34.17217 -120.56824 25122 ft 481 kts 87°
2026-04-25 13:02 34.17529 -120.52809 24497 ft 479 kts 87°
2026-04-25 13:02 34.17835 -120.48817 23863 ft 477 kts 87°
2026-04-25 13:02 34.18138 -120.44838 23171 ft 475 kts 87°
2026-04-25 13:03 34.18434 -120.40931 22493 ft 473 kts 87°
2026-04-25 13:03 34.18733 -120.36984 21804 ft 470 kts 87°
2026-04-25 13:03 34.19035 -120.33064 21134 ft 468 kts 87°
2026-04-25 13:03 34.19238 -120.29164 20641 ft 461 kts 90°
2026-04-25 13:04 34.19387 -120.25351 20307 ft 448 kts 90°
2026-04-25 13:04 34.19527 -120.21620 20039 ft 444 kts 90°
2026-04-25 13:04 34.19668 -120.17935 19782 ft 434 kts 90°
2026-04-25 13:04 34.19807 -120.14335 19529 ft 425 kts 90°
2026-04-25 13:05 34.19942 -120.10806 19258 ft 416 kts 90°
2026-04-25 13:05 34.20073 -120.07370 18997 ft 414 kts 91°
2026-04-25 13:05 34.20082 -120.03929 18728 ft 406 kts 94°
2026-04-25 13:05 34.20045 -120.00542 18466 ft 401 kts 94°
2026-04-25 13:06 34.20003 -119.97199 18199 ft 396 kts 94°
2026-04-25 13:06 34.19962 -119.93892 17902 ft 391 kts 94°
2026-04-25 13:06 34.19928 -119.90625 17625 ft 387 kts 94°
2026-04-25 13:06 34.19881 -119.87397 17360 ft 382 kts 94°
2026-04-25 13:07 34.19832 -119.84205 17075 ft 378 kts 94°
2026-04-25 13:07 34.19789 -119.81042 16807 ft 382 kts 94°
2026-04-25 13:07 34.19744 -119.77850 16589 ft 383 kts 94°
2026-04-25 13:07 34.19695 -119.74661 16355 ft 377 kts 94°
2026-04-25 13:08 34.19649 -119.71512 16108 ft 373 kts 94°
2026-04-25 13:08 34.19605 -119.68400 15857 ft 368 kts 94°
2026-04-25 13:08 34.19560 -119.65306 15612 ft 368 kts 94°
2026-04-25 13:08 34.19520 -119.62219 15370 ft 367 kts 94°
2026-04-25 13:09 34.19477 -119.59074 15135 ft 384 kts 94°
2026-04-25 13:09 34.19427 -119.55830 14906 ft 387 kts 94°
2026-04-25 13:09 34.19374 -119.52592 14662 ft 385 kts 93°
2026-04-25 13:09 34.19322 -119.49409 14421 ft 383 kts 93°
2026-04-25 13:10 34.19265 -119.46197 14168 ft 382 kts 93°
2026-04-25 13:10 34.19212 -119.42996 13920 ft 381 kts 93°
2026-04-25 13:10 34.19151 -119.39800 13656 ft 380 kts 94°
2026-04-25 13:10 34.19090 -119.36613 13386 ft 378 kts 93°
2026-04-25 13:11 34.19034 -119.33450 13125 ft 376 kts 93°
2026-04-25 13:11 34.18989 -119.30302 12867 ft 374 kts 93°
2026-04-25 13:11 34.18944 -119.27175 12610 ft 371 kts 93°
2026-04-25 13:11 34.18894 -119.24069 12356 ft 369 kts 93°
2026-04-25 13:12 34.18833 -119.20981 12103 ft 367 kts 93°
2026-04-25 13:12 34.18776 -119.17949 11855 ft 365 kts 93°
2026-04-25 13:12 34.18717 -119.14897 11606 ft 363 kts 93°
2026-04-25 13:12 34.18680 -119.12882 11442 ft 361 kts 93°
2026-04-25 13:13 34.18604 -119.08847 11116 ft 356 kts 93°
2026-04-25 13:13 34.18384 -119.05949 10957 ft 336 kts 107°
2026-04-25 13:13 34.17558 -119.03411 10798 ft 317 kts 118°
2026-04-25 13:13 34.16604 -119.01042 10493 ft 312 kts 120°
2026-04-25 13:14 34.15645 -118.98697 10347 ft 311 kts 119°
2026-04-25 13:14 34.14716 -118.96377 10250 ft 311 kts 119°
2026-04-25 13:14 34.13781 -118.94019 10184 ft 312 kts 119°
2026-04-25 13:14 34.12849 -118.91660 10112 ft 311 kts 119°
2026-04-25 13:15 34.11919 -118.89304 10029 ft 311 kts 119°
2026-04-25 13:15 34.10993 -118.86949 9986 ft 310 kts 118°
2026-04-25 13:15 34.10070 -118.84596 9981 ft 310 kts 118°
2026-04-25 13:15 34.09148 -118.82247 9987 ft 310 kts 118°
2026-04-25 13:16 34.08227 -118.79902 9997 ft 310 kts 118°
2026-04-25 13:16 34.07306 -118.77552 9996 ft 310 kts 118°
2026-04-25 13:16 34.06395 -118.75238 9996 ft 309 kts 118°
2026-04-25 13:16 34.05501 -118.72937 9856 ft 299 kts 118°
2026-04-25 13:17 34.04622 -118.70681 9518 ft 296 kts 118°
2026-04-25 13:17 34.03747 -118.68448 9195 ft 293 kts 118°
2026-04-25 13:17 34.02963 -118.66187 8935 ft 292 kts 107°
2026-04-25 13:17 34.02635 -118.63775 8558 ft 292 kts 98°
2026-04-25 13:18 34.02426 -118.61343 8162 ft 291 kts 97°
2026-04-25 13:18 34.02220 -118.58921 7990 ft 290 kts 97°
2026-04-25 13:18 34.02005 -118.56506 7974 ft 290 kts 97°
2026-04-25 13:18 34.01789 -118.54096 7912 ft 286 kts 97°
2026-04-25 13:19 34.01569 -118.51737 7651 ft 280 kts 97°
2026-04-25 13:19 34.01352 -118.49470 7497 ft 271 kts 97°
2026-04-25 13:19 34.01140 -118.47260 7353 ft 261 kts 97°
2026-04-25 13:19 34.01077 -118.46527 7274 ft 259 kts 95°
2026-04-25 13:20 34.01406 -118.42993 6777 ft 255 kts 77°
2026-04-25 13:20 34.01779 -118.40910 6478 ft 253 kts 77°
2026-04-25 13:20 34.02147 -118.38847 6210 ft 250 kts 77°
2026-04-25 13:20 34.02505 -118.36805 6030 ft 248 kts 78°
2026-04-25 13:21 34.02795 -118.34766 5974 ft 246 kts 82°
2026-04-25 13:21 34.03006 -118.32740 5970 ft 248 kts 83°
2026-04-25 13:21 34.03214 -118.30684 5983 ft 247 kts 83°
2026-04-25 13:21 34.03421 -118.28630 5992 ft 246 kts 83°
2026-04-25 13:22 34.03628 -118.26583 5969 ft 247 kts 83°
2026-04-25 13:22 34.03833 -118.24527 5814 ft 246 kts 83°
2026-04-25 13:22 34.04044 -118.22488 5639 ft 243 kts 83°
2026-04-25 13:23 34.04459 -118.18493 5243 ft 238 kts 83°
2026-04-25 13:23 34.04666 -118.16527 5038 ft 235 kts 83°
2026-04-25 13:23 34.04873 -118.14601 4959 ft 234 kts 83°
2026-04-25 13:23 34.04914 -118.12671 4843 ft 228 kts 102°
2026-04-25 13:24 34.04286 -118.10952 4485 ft 224 kts 130°
2026-04-25 13:24 34.03083 -118.09799 4138 ft 222 kts 156°
2026-04-25 13:24 34.01587 -118.09414 3951 ft 221 kts 181°
2026-04-25 13:24 34.00103 -118.09849 3794 ft 221 kts 206°
2026-04-25 13:25 33.98913 -118.11015 3613 ft 223 kts 229°
2026-04-25 13:25 33.98031 -118.12521 3558 ft 223 kts 234°
2026-04-25 13:25 33.97178 -118.14046 3554 ft 212 kts 234°
2026-04-25 13:25 33.96378 -118.15467 3553 ft 202 kts 236°
2026-04-25 13:26 33.95810 -118.17012 3488 ft 204 kts 257°
2026-04-25 13:26 33.95636 -118.18710 3149 ft 205 kts 263°
2026-04-25 13:26 33.95507 -118.20425 2761 ft 207 kts 262°
2026-04-25 13:26 33.95351 -118.22157 2369 ft 209 kts 261°
2026-04-25 13:27 33.95184 -118.23891 2010 ft 205 kts 262°
2026-04-25 13:27 33.95027 -118.25513 1863 ft 184 kts 262°
2026-04-25 13:27 33.94889 -118.26916 1852 ft 159 kts 261°
2026-04-25 13:27 33.94774 -118.28115 1813 ft 137 kts 261°
2026-04-25 13:28 33.94656 -118.29248 1635 ft 136 kts 261°
2026-04-25 13:28 33.94617 -118.29629 1561 ft 135 kts 261°
2026-04-25 13:28 33.94428 -118.31494 1262 ft 135 kts 261°
2026-04-25 13:28 33.94314 -118.32610 1076 ft 134 kts 262°
2026-04-25 13:29 33.94198 -118.33723 905 ft 134 kts 262°
2026-04-25 13:29 33.94084 -118.34832 736 ft 133 kts 262°
2026-04-25 13:29 33.93970 -118.35938 534 ft 133 kts 262°
2026-04-25 13:30 33.93752 -118.38109 171 ft 130 kts 263°
2026-04-25 13:30 33.93647 -118.39158 100 ft 117 kts 263°
2026-04-25 13:30 33.93579 -118.39812 103 ft 40 kts 263°
2026-04-25 13:31 33.93600 -118.40289 101 ft 20 kts 289°
2026-04-25 13:31 33.93627 -118.40412 100 ft 13 kts 269°
2026-04-25 13:31 33.93617 -118.40530 100 ft 15 kts 263°
2026-04-25 13:31 33.93604 -118.40661 100 ft 17 kts 263°
2026-04-25 13:32 33.93593 -118.40777 99 ft 13 kts 270°
2026-04-25 13:32 33.93606 -118.40842 99 ft 6 kts 289°
2026-04-25 13:32 33.93641 -118.40887 103 ft 9 kts 340°
2026-04-25 13:32 33.93712 -118.40908 102 ft 9 kts 354°
2026-04-25 13:33 33.93772 -118.40896 101 ft 10 kts 45°
2026-04-25 13:33 33.93794 -118.40827 99 ft 8 kts 82°
2026-04-25 13:33 33.93802 -118.40769 100 ft 7 kts 70°
2026-04-25 13:33 33.93825 -118.40737 100 ft 8 kts 29°
2026-04-25 13:34 33.93874 -118.40763 99 ft 5 kts 315°
2026-04-25 13:34 33.93904 -118.40799 98 ft 6 kts 317°
2026-04-25 13:34 33.93933 -118.40812 100 ft 3 kts
2026-04-25 13:34 33.93956 -118.40797 99 ft 5 kts 50°
2026-04-25 13:35 33.93965 -118.40778 101 ft 3 kts 63°
2026-04-25 13:35 33.93974 -118.40751 99 ft 3 kts 71°
2026-04-25 13:35 33.93979 -118.40733 98 ft 3 kts 71°
2026-04-25 13:35 33.93980 -118.40731 98 ft 0 kts 71°